Temperature
22 22 21 21 21 21 21 22 22 23 23 23 24 23 23 22 21 21 20 19 19 19 19 19 18 19 19 19 18 18 18 17 17 17 17 17 17 16 16 16 15 15 15 15
21 21 21 21 21 22 21 22 22 22 22 24 24 23 22 22 21 21 21 20 19 19 19 19 19 19 19 19 19 18 18 18 17 17 17 17 17 17 16 16 16 15 15 15
21 21 21 20 22 22 22 22 22 22 23 24 23 23 22 22 21 21 21 20 20 19 19 19 19 19 19 19 19 18 18 18 18 17 17 17 17 17 16 16 16 16 15 15
20 20 19 22 23 22 22 22 23 22 23 23 23 22 21 21 21 21 21 20 20 19 20 19 19 19 19 19 19 18 18 18 18 18 17 17 17 17 17 16 16 16 15 15
20 20 20 22 22 22 22 22 23 23 23 22 22 22 22 21 21 20 20 20 20 20 20 19 19 19 19 19 19 18 18 18 18 18 17 17 17 17 17 16 16 16 15 15
19 19 20 22 23 22 22 22 23 23 23 22 22 22 23 21 20 20 20 20 20 20 20 19 19 19 19 19 19 18 18 18 18 18 18 17 17 17 17 16 16 16 15 15
19 19 21 23 21 21 21 22 22 22 22 22 22 22 21 20 20 19 19 19 20 20 20 20 20 19 19 19 19 19 19 18 18 18 18 17 17 17 16 16 16 15 15 15
20 19 20 22 21 21 22 22 21 21 21 21 21 20 20 20 19 19 19 19 19 19 19 19 19 19 19 19 19 18 18 18 18 18 17 17 17 17 16 16 16 15 15 15
21 21 21 20 21 20 20 21 21 20 20 20 19 19 19 19 19 19 19 19 19 19 19 19 19 19 19 19 18 19 18 18 18 18 17 17 17 17 16 16 15 15 15 15
20 21 20 20 19 19 19 19 19 19 19 19 19 19 19 19 19 19 19 19 19 19 19 19 19 19 19 18 19 19 18 18 18 17 17 17 17 16 16 16 16 15 15 15
20 20 20 19 19 19 19 19 19 19 19 19 19 19 19 18 18 18 18 19 19 19 19 19 19 19 18 18 18 18 18 18 17 17 17 17 16 16 16 16 16 15 15 15
20 20 20 20 19 18 18 18 18 18 18 18 18 18 18 18 18 18 18 18 19 18 18 18 18 18 18 18 18 18 17 17 17 17 17 16 16 16 16 16 15 15 15 15
18 18 18 18 17 17 18 18 18 18 18 18 18 18 18 18 18 18 18 18 18 18 18 18 18 18 18 18 18 18 17 17 17 17 17 16 16 16 16 15 15 15 15 14
16 16 17 17 17 17 17 17 17 17 18 18 18 18 18 18 18 18 18 18 18 18 18 18 18 18 18 18 18 17 17 17 17 17 16 16 16 16 15 15 15 15 14 14
15 15 16 16 16 16 16 16 17 17 17 17 17 17 17 17 17 17 17 17 17 17 17 17 17 17 17 17 17 17 17 17 17 16 16 16 16 15 15 15 15 14 14 14
15 15 15 15 15 16 16 16 16 16 16 16 16 16 17 17 17 17 17 17 17 17 17 17 17 17 17 17 17 17 17 17 17 16 16 16 15 15 15 15 14 14 14 14
14 14 14 15 15 15 16 16 16 16 16 16 16 16 16 16 16 16 16 16 17 17 17 17 17 17 17 17 17 16 16 16 16 16 16 15 15 15 15 14 14 14 13 13
14 14 14 15 15 15 15 15 15 15 15 15 16 16 16 16 16 16 16 16 16 16 16 16 16 16 16 16 16 16 16 16 16 15 15 15 15 14 14 14 14 13 13 13
14 14 14 14 14 14 15 15 15 15 15 15 15 15 15 15 15 15 15 15 15 15 15 16 16 16 16 16 16 16 15 15 15 15 15 15 14 14 14 13 13 13 12 12
13 13 14 14 14 14 14 14 14 14 15 15 15 15 14 14 14 14 14 14 14 14 15 15 15 15 15 15 15 15 15 15 15 14 14 14 14 13 13 13 12 12 12 12
12 13 13 13 13 13 13 14 14 14 14 14 14 14 14 14 14 14 14 13 13 14 14 14 14 14 14 14 14 14 14 14 14 14 13 13 13 13 12 12 12 11 11 11
11 12 12 12 13 13 13 13 13 14 14 13 13 13 13 13 13 13 13 13 13 13 14 14 14 14 14 14 13 13 13 13 13 13 13 13 12 12 12 11 11 11 10 10
11 11 12 12 12 12 12 12 13 13 13 13 13 13 13 12 12 12 12 12 12 13 13 13 13 13 13 13 13 13 13 12 12 12 12 12 12 11 11 11 10 10 10 9
10 10 11 11 11 11 11 11 12 12 12 12 12 12 12 12 12 12 12 12 12 12 12 12 12 12 12 12 12 12 12 12 12 12 11 11 11 11 10 10 10 9 9 9
9 9 10 10 10 10 10 11 11 11 11 11 11 11 11 11 11 11 11 11 11 11 11 11 11 11 11 11 11 11 11 11 11 11 11 10 10 10 10 9 9 9 8 8
8 9 9 9 9 10 10 10 10 10 10 10 10 10 10 10 10 10 10 10 10 10 10 11 11 11 11 11 11 11 11 10 10 10 10 10 9 9 9 9 8 8 8 7
8 8 8 8 8 9 9 9 9 9 9 9 9 9 9 9 9 9 9 10 10 10 10 10 10 10 10 10 10 10 10 10 10 9 9 9 9 8 8 8 8 7 7 7
Wind_Speed
7 3 5 8 10 13 15 14 13 11 11 11 9 7 6 5 5 7 10 12 14 15 15 15 15 15 15 14 13 13 13 12 12 11 10 9 8 8 7 7 6 6 5 5
9 8 8 10 11 13 14 15 16 16 15 11 8 7 7 7 7 9 10 12 14 15 16 17 17 16 15 15 14 14 13 13 12 11 11 10 9 9 8 7 7 6 6 5
8 7 7 11 13 14 14 13 13 15 13 9 8 7 8 7 8 9 10 12 13 15 16 17 17 17 17 16 15 15 14 13 12 12 12 11 10 9 8 8 7 7 6 6
6 7 10 6 3 8 12 14 14 15 14 12 10 9 9 8 9 10 10 11 12 13 14 15 15 16 15 15 16 15 15 14 13 13 12 11 11 10 9 8 8 7 7 6
6 8 8 7 6 7 9 11 11 13 12 10 8 8 9 7 8 9 9 10 10 12 13 14 15 15 15 15 15 15 15 14 14 14 13 13 12 11 10 9 8 8 7 7
8 8 7 5 3 4 6 8 5 7 8 7 7 7 5 3 4 6 6 7 8 10 12 13 14 15 16 16 15 15 15 14 14 14 14 13 12 11 9 9 8 7 7 7
12 10 7 4 3 6 6 2 2 2 4 6 7 5 2 1 2 4 5 6 8 10 11 11 13 15 15 16 16 15 14 13 13 13 13 12 11 10 9 9 8 8 8 7
11 10 8 4 7 6 3 3 3 3 3 4 5 4 2 1 1 3 4 6 8 9 9 10 12 14 15 15 14 13 12 12 13 13 11 10 11 10 10 9 9 8 8 7
8 7 2 5 5 4 4 4 4 3 2 2 3 3 2 1 2 3 4 5 7 8 9 9 11 13 14 12 12 12 13 13 12 12 11 11 11 11 10 9 8 8 7 7
7 7 5 5 5 4 4 5 4 3 1 2 3 2 1 1 2 3 4 5 6 8 8 8 9 10 11 11 13 13 13 13 12 12 11 11 9 9 9 9 9 8 8 7
9 7 5 5 5 4 3 2 2 1 1 2 2 2 2 2 2 3 4 5 6 7 7 8 9 9 10 11 13 13 13 12 11 11 10 10 9 7 9 8 8 8 8 8
7 6 5 4 3 2 2 2 1 0 1 2 2 2 2 2 2 3 4 5 5 6 6 7 8 9 9 10 12 13 11 11 10 9 9 9 8 6 2 1 4 3 3 5
4 2 3 3 2 2 2 2 1 1 1 1 1 1 2 2 2 3 4 5 5 6 6 7 8 8 9 10 11 12 11 10 9 9 9 9 8 8 6 3 3 3 4 5
2 2 2 2 2 1 1 1 2 2 2 2 2 2 3 3 3 3 4 4 5 6 6 7 7 7 8 9 10 10 10 9 9 8 8 8 8 8 7 7 6 4 5 6
4 4 3 2 2 1 1 2 3 2 3 3 3 3 3 3 3 3 3 5 6 6 6 7 7 6 7 8 9 9 9 8 8 7 7 7 7 7 7 7 6 5 5 6
3 3 3 3 3 2 3 3 3 3 3 3 3 3 3 3 3 3 4 5 6 6 6 6 6 6 7 8 8 7 7 7 7 7 7 7 7 7 6 6 6 6 6 5
5 5 4 4 3 3 3 3 3 3 4 4 4 4 4 5 5 5 4 4 5 5 5 5 5 5 6 7 8 6 6 7 8 7 7 7 6 6 6 6 6 5 5 6
6 6 6 5 4 3 3 3 3 4 4 4 4 4 4 5 5 5 4 5 5 5 5 5 5 6 6 6 6 5 6 6 7 7 6 6 6 6 6 5 6 5 4 5
5 4 4 4 4 4 4 3 3 4 4 4 4 4 4 4 4 4 5 5 5 4 3 4 5 5 5 5 5 5 6 6 6 6 5 6 6 5 5 5 5 5 5 5
5 4 4 4 3 4 4 4 4 4 4 4 4 5 5 4 4 5 5 5 3 2 3 3 4 4 5 5 5 5 5 6 6 6 6 6 5 5 5 5 5 5 5 5
5 5 5 5 4 4 4 4 4 4 4 4 4 4 5 4 4 4 4 4 3 4 4 4 3 3 3 4 5 4 5 5 5 5 5 5 5 5 5 5 5 5 5 4
6 6 6 5 5 5 4 4 4 5 5 4 4 4 5 4 4 4 4 3 3 3 3 3 3 3 3 4 4 4 4 4 4 4 4 4 5 5 5 5 5 4 4 4
5 5 6 5 5 5 5 5 5 4 4 4 4 4 4 3 2 3 3 2 2 3 2 3 4 5 4 3 3 4 4 4 4 4 4 4 4 4 4 4 4 4 4 4
5 5 5 5 6 6 6 5 5 4 4 4 3 3 3 3 2 2 3 3 3 3 3 4 5 5 3 3 3 3 3 3 3 3 3 3 3 3 3 3 3 3 3 4
6 6 6 6 5 5 5 5 5 5 4 4 4 4 3 2 2 2 3 4 4 4 3 4 5 4 3 2 2 2 2 2 2 2 2 2 3 3 3 3 3 3 3 3
5 5 4 4 4 4 4 4 3 3 3 3 3 3 3 3 3 3 3 4 4 3 3 3 3 2 2 2 2 2 2 2 3 2 2 2 2 2 2 3 3 3 3 3
6 5 5 4 4 3 3 3 3 3 2 3 3 3 3 3 3 3 3 3 3 3 3 2 2 2 2 2 2 2 2 2 2 2 2 1 1 2 2 2 2 2 2 2
Wind_Direction
242 245 226 229 224 219 229 241 253 260 266 269 274 277 274 260 229 210 201 196 194 193 193 193 191 192 189 185 182 180 181 185 186 184 181 178 172 173 172 171 172 168 164 157
233 232 237 246 244 235 235 243 252 262 266 269 275 269 261 250 227 214 209 202 198 197 195 193 190 190 187 185 182 181 183 185 182 182 178 180 178 175 173 175 175 172 174 165
235 222 237 249 240 235 236 239 246 254 259 265 265 261 257 253 235 223 213 205 200 199 198 196 193 190 188 185 181 183 186 185 181 182 180 182 177 175 176 176 175 175 175 170
236 224 239 249 237 237 242 248 248 253 262 265 265 266 262 254 240 231 218 207 202 198 196 195 192 189 186 181 181 183 185 185 182 182 181 180 179 181 181 179 178 180 178 175
230 238 255 252 233 225 237 254 253 252 256 257 254 262 256 242 233 231 221 210 202 195 191 187 186 183 180 180 181 183 186 185 184 184 183 182 184 186 183 181 182 182 179 181
225 236 244 240 185 202 239 260 259 248 248 238 220 236 243 225 217 222 215 207 195 186 181 179 179 178 179 180 182 187 188 185 184 186 186 186 187 185 181 181 183 180 180 186
225 235 250 251 168 177 223 272 28 283 243 224 217 238 271 268 207 197 191 185 179 176 175 173 173 175 181 183 188 188 184 181 182 185 187 186 182 180 176 177 179 182 181 184
218 228 236 172 172 208 263 337 327 316 269 239 233 245 255 246 183 172 166 164 167 167 166 167 173 178 185 190 187 178 174 177 180 181 180 178 176 177 177 175 177 182 184 184
219 229 252 176 207 247 284 287 303 314 298 230 219 221 227 210 170 164 158 158 163 162 159 165 177 185 188 184 173 169 171 176 178 177 176 175 175 176 176 180 185 187 189 191
227 239 243 241 242 249 267 273 288 286 249 204 193 179 166 165 157 155 158 159 163 162 162 166 176 184 184 173 170 171 174 176 176 177 175 176 177 180 182 186 190 192 195 196
233 241 246 235 239 260 273 276 297 301 171 169 164 152 156 157 158 158 157 158 162 164 165 166 170 174 172 169 171 172 172 173 174 176 174 177 179 185 192 193 197 197 197 196
231 227 234 237 250 255 260 271 264 149 94 109 139 151 155 152 153 158 158 157 159 160 165 164 163 164 165 168 170 170 171 172 172 171 172 175 174 172 112 154 146 182 199 203
257 271 262 264 266 262 250 254 246 190 138 122 114 135 144 140 143 149 154 158 162 164 165 159 158 159 162 167 170 171 171 169 169 170 171 175 177 178 174 152 126 161 178 183
228 237 240 239 243 262 235 194 168 144 122 110 108 120 124 126 134 146 157 162 157 155 154 154 156 159 162 165 166 169 167 161 163 169 172 176 179 182 181 177 175 175 179 178
231 245 238 229 223 231 185 151 128 116 109 99 98 105 116 124 132 143 146 142 142 144 149 151 152 155 158 163 165 167 163 162 165 167 170 172 174 177 178 179 178 172 165 163
223 202 187 184 185 185 177 160 134 123 119 112 103 96 104 113 118 124 131 140 143 147 150 149 149 150 154 158 159 161 159 149 155 161 164 167 171 174 176 177 178 177 178 172
187 194 191 194 194 185 177 166 144 132 126 114 104 99 101 105 108 114 120 129 134 137 142 143 144 145 153 157 156 155 153 153 155 162 167 170 173 176 177 179 181 183 184 174
208 210 210 210 204 195 176 154 137 130 125 116 113 110 105 107 110 112 111 115 117 114 118 127 134 142 149 155 156 154 155 158 168 171 169 172 174 175 177 180 183 184 178 168
185 191 192 195 192 183 174 161 144 134 125 124 121 114 106 102 103 108 112 112 112 109 104 109 118 137 143 146 146 154 156 158 162 165 166 158 166 172 175 178 181 184 179 175
166 164 157 156 159 159 153 145 135 126 118 119 121 117 111 106 106 110 111 101 91 89 99 104 127 132 137 145 151 158 158 160 160 161 162 165 169 172 176 179 182 184 184 185
149 145 142 140 135 130 129 133 131 125 117 119 125 123 117 111 110 114 115 105 84 72 88 101 118 123 135 144 161 164 163 163 163 163 164 167 169 171 175 179 183 189 191 192
147 142 138 136 132 124 116 116 117 117 115 114 116 119 118 115 112 107 99 94 87 78 89 103 104 96 113 139 160 162 164 164 163 163 165 170 173 176 180 184 188 191 194 196
138 133 130 130 128 123 114 109 108 110 113 112 114 117 117 113 114 115 105 81 92 91 91 96 89 100 121 146 151 157 160 162 164 166 168 173 176 179 183 186 189 191 194 197
125 121 121 122 123 120 113 103 98 101 103 99 97 105 112 113 102 88 87 99 96 108 101 93 101 116 139 142 144 152 155 158 162 165 166 169 173 177 181 184 188 193 198 200
123 121 119 120 117 114 112 108 103 100 99 97 93 88 85 86 98 103 103 106 102 104 96 99 104 113 128 127 138 144 148 149 155 160 162 165 171 175 179 184 189 193 200 204
112 108 105 103 102 108 113 111 107 104 104 98 88 80 81 84 94 103 105 108 107 94 88 98 107 111 96 98 111 120 126 131 137 147 154 162 170 169 175 183 189 196 196 194
104 101 100 95 89 91 99 105 107 105 103 107 103 92 89 92 96 98 100 100 100 91 84 87 90 85 74 80 88 91 98 110 119 123 132 142 155 165 172 173 174 176 179 184
Height
1505 1507 1509 1510 1511 1513 1514 1511 1513 1508 1507 1503 1503 1505 1507 1509 1510 1512 1514 1516 1519 1522 1527 1531 1535 1540 1544 1548 1552 1556 1560 1563 1566 1569 1571 1574 1576 1577 1579 1580 1582 1583 1584 1584
1507 1506 1508 1509 1507 1507 1508 1507 1506 1505 1504 1499 1501 1503 1504 1505 1507 1508 1510 1512 1515 1519 1522 1526 1530 1535 1540 1544 1548 1553 1556 1560 1563 1566 1569 1572 1574 1576 1578 1579 1581 1582 1583 1584
1507 1504 1508 1509 1500 1501 1502 1501 1502 1502 1498 1496 1498 1500 1501 1502 1503 1504 1506 1508 1511 1514 1517 1522 1526 1531 1536 1540 1545 1549 1553 1557 1560 1563 1566 1569 1572 1574 1576 1578 1579 1580 1582 1582
1506 1508 1515 1497 1490 1493 1496 1495 1495 1494 1493 1494 1496 1497 1498 1499 1499 1500 1502 1504 1507 1510 1514 1518 1523 1527 1532 1537 1541 1545 1550 1553 1557 1560 1563 1566 1569 1571 1574 1576 1577 1579 1580 1581
1505 1507 1501 1493 1490 1492 1494 1491 1489 1489 1490 1492 1493 1494 1493 1494 1495 1496 1498 1501 1503 1506 1510 1514 1519 1523 1528 1533 1537 1542 1546 1549 1553 1557 1560 1563 1566 1569 1571 1573 1575 1577 1578 1579
1503 1507 1505 1490 1486 1489 1492 1491 1485 1486 1486 1488 1490 1491 1489 1491 1492 1493 1495 1497 1500 1503 1507 1510 1515 1519 1524 1529 1533 1537 1541 1545 1549 1553 1557 1560 1563 1566 1568 1570 1572 1574 1575 1577
1499 1500 1492 1483 1487 1490 1495 1487 1483 1484 1485 1486 1487 1487 1489 1489 1490 1491 1492 1494 1497 1500 1503 1507 1511 1515 1520 1525 1529 1533 1538 1542 1546 1549 1553 1556 1559 1562 1565 1567 1569 1571 1573 1574
1492 1497 1492 1482 1485 1486 1483 1482 1483 1483 1484 1484 1485 1486 1487 1488 1488 1489 1491 1492 1495 1498 1501 1504 1508 1512 1517 1521 1525 1530 1533 1538 1542 1546 1549 1552 1556 1559 1561 1564 1566 1568 1570 1571
1482 1483 1479 1481 1482 1483 1483 1483 1482 1482 1483 1483 1484 1484 1485 1486 1487 1488 1490 1492 1494 1496 1499 1502 1505 1509 1514 1518 1522 1526 1530 1534 1538 1542 1545 1549 1552 1555 1558 1560 1562 1564 1566 1568
1479 1477 1479 1480 1481 1482 1482 1482 1481 1481 1481 1482 1482 1483 1484 1485 1486 1488 1489 1491 1492 1495 1497 1500 1503 1507 1511 1515 1518 1523 1527 1531 1534 1538 1541 1545 1548 1551 1553 1556 1558 1560 1562 1564
1476 1476 1477 1478 1479 1480 1480 1480 1480 1480 1480 1480 1481 1482 1484 1485 1486 1487 1488 1490 1491 1493 1496 1498 1501 1504 1508 1511 1515 1519 1523 1527 1531 1534 1537 1541 1544 1546 1549 1552 1554 1557 1558 1560
1472 1474 1475 1476 1477 1478 1479 1479 1479 1479 1479 1479 1481 1481 1482 1483 1484 1486 1487 1489 1490 1492 1495 1497 1499 1502 1505 1509 1512 1516 1520 1524 1527 1530 1534 1537 1540 1543 1545 1548 1550 1553 1555 1557
1472 1473 1474 1475 1476 1477 1478 1478 1478 1478 1478 1479 1479 1480 1481 1482 1483 1484 1486 1487 1489 1491 1494 1496 1498 1501 1504 1507 1510 1514 1517 1520 1524 1527 1530 1533 1536 1539 1541 1544 1547 1549 1551 1552
1471 1472 1473 1474 1475 1475 1476 1477 1477 1477 1478 1478 1478 1479 1480 1481 1482 1483 1485 1486 1489 1491 1493 1495 1497 1499 1502 1505 1508 1512 1515 1518 1521 1524 1527 1530 1533 1536 1538 1540 1542 1544 1546 1548
1469 1470 1472 1472 1473 1474 1475 1475 1475 1476 1476 1477 1477 1478 1479 1480 1481 1482 1484 1485 1487 1490 1492 1494 1496 1498 1501 1504 1507 1510 1513 1515 1519 1522 1525 1528 1530 1533 1535 1537 1539 1541 1543 1544
1466 1468 1469 1470 1472 1473 1473 1474 1474 1475 1475 1476 1477 1477 1478 1479 1480 1481 1483 1485 1487 1489 1491 1493 1495 1497 1500 1502 1505 1508 1510 1513 1516 1519 1522 1524 1527 1529 1532 1534 1536 1537 1539 1540
1464 1465 1467 1468 1470 1471 1472 1472 1473 1474 1474 1475 1476 1477 1478 1479 1479 1481 1483 1485 1486 1488 1490 1492 1494 1496 1499 1501 1504 1506 1508 1511 1514 1517 1519 1521 1524 1526 1528 1530 1532 1534 1535 1536
1461 1463 1465 1466 1467 1468 1469 1471 1472 1473 1474 1475 1476 1477 1478 1479 1479 1481 1482 1484 1486 1487 1489 1491 1493 1495 1497 1500 1502 1504 1507 1509 1511 1514 1516 1518 1521 1523 1525 1527 1528 1530 1531 1532
1458 1460 1462 1464 1465 1466 1468 1469 1470 1472 1473 1475 1476 1477 1478 1479 1479 1480 1482 1483 1484 1486 1488 1490 1492 1494 1496 1498 1500 1502 1505 1507 1509 1511 1513 1515 1518 1519 1521 1523 1525 1526 1527 1528
1457 1458 1460 1462 1463 1465 1467 1468 1469 1471 1472 1474 1475 1476 1477 1478 1479 1480 1481 1482 1484 1485 1487 1489 1491 1492 1494 1496 1498 1500 1502 1504 1506 1508 1510 1512 1514 1516 1518 1519 1521 1522 1523 1524
1455 1457 1459 1461 1462 1464 1466 1467 1469 1470 1471 1473 1475 1475 1477 1478 1479 1480 1481 1482 1484 1485 1486 1488 1489 1491 1492 1494 1496 1498 1500 1501 1503 1505 1507 1509 1511 1512 1514 1515 1517 1518 1519 1520
1453 1455 1457 1459 1461 1463 1465 1466 1468 1469 1471 1472 1474 1475 1476 1477 1478 1479 1480 1482 1483 1484 1485 1486 1488 1489 1491 1492 1494 1495 1497 1499 1500 1502 1504 1506 1507 1509 1510 1511 1513 1514 1515 1515
1452 1454 1456 1458 1460 1461 1464 1466 1467 1469 1470 1471 1473 1474 1475 1476 1477 1478 1480 1481 1482 1483 1484 1485 1486 1488 1489 1490 1491 1493 1494 1496 1497 1499 1501 1502 1504 1505 1506 1507 1508 1509 1510 1511
1451 1453 1455 1458 1459 1461 1463 1465 1466 1468 1469 1471 1472 1474 1475 1476 1477 1478 1479 1480 1481 1482 1483 1484 1485 1486 1487 1488 1489 1490 1492 1493 1494 1496 1497 1499 1500 1501 1502 1503 1504 1505 1505 1506
1451 1453 1455 1457 1459 1461 1462 1464 1466 1468 1469 1470 1472 1473 1474 1476 1477 1477 1478 1479 1480 1481 1482 1482 1483 1484 1485 1486 1487 1488 1489 1490 1492 1493 1494 1495 1496 1497 1498 1499 1500 1501 1501 1501
1452 1454 1456 1457 1459 1461 1462 1464 1466 1467 1468 1470 1471 1472 1474 1475 1476 1476 1477 1478 1479 1480 1480 1481 1482 1482 1483 1484 1485 1486 1487 1487 1488 1489 1490 1491 1492 1493 1494 1495 1496 1496 1497 1497
1452 1454 1456 1458 1459 1461 1463 1464 1465 1467 1468 1469 1470 1472 1473 1474 1475 1475 1476 1477 1477 1478 1479 1480 1480 1480 1481 1482 1482 1483 1484 1485 1485 1486 1487 1488 1489 1490 1490 1491 1492 1492 1493 1493